Regional Weather Roundup
Issued by NWS Memphis, TN

Home | Current Version | Previous Version | Text Only | Print | Product List | Glossary On
Versions: 1 2 3 4 5 6 7 8 9 10 11 12 13 14 15 16 17 18 19 20 21 22 23 24 25 26 27 28 29 30 31 32 33 34 35 36 37 38 39 40 41 42 43 44 45 46 47 48 49 50
000
ASUS44 KMEG 272010
RWRMEG
MEMPHIS CWA HOURLY WEATHER ROUNDUP
NATIONAL WEATHER SERVICE MEMPHIS TN
200 PM CST SAT DEC 27 2014

...WEST TENNESSEE...

CITY           SKY/WX    TMP DP  RH WIND       PRES   REMARKS
MEMPHIS INTL   CLOUDY    56  53  90 CALM      30.07F
NWS MEMPHIS      N/A     54 N/A N/A MISG        N/A
JACKSON        CLOUDY    52  50  93 CALM      30.10F FOG
LEXINGTON      CLOUDY    48  46  93 S7        30.08F
SAVANNAH       CLOUDY    48  48 100 SE3       30.11F
DYERSBURG      CLOUDY    50  39  66 CALM      30.11S
UNION CITY     CLOUDY    48  48 100 SE3       30.09F
PARIS          CLOUDY    48  48 100 CALM      30.12R
HUNTINGDON     CLOUDY    49  48  96 S5        30.11F


...EASTERN ARKANSAS...

CITY           SKY/WX    TMP DP  RH WIND       PRES   REMARKS
JONESBORO      CLOUDY    53  52  96 N3        30.08F
WEST MEMPHIS   LGT RAIN  54  54 100 CALM      30.08R FOG
BATESVILLE     CLOUDY    46  43  87 NW8       30.13R
NEWPORT        LGT RAIN  51  48  89 NW14      30.11F
WALNUT RIDGE   CLOUDY    52  46  82 N14       30.09S
BLYTHEVILLE    CLOUDY    51  51 100 SE6       30.10S
SEARCY         CLOUDY    49  46  90 N5        30.13S
STUTTGART      CLOUDY    54  52  94 N8        30.08R
PINE BLUFF     LGT RAIN  52  50  93 N14G22    30.08R FOG
MONTICELLO     LGT RAIN  59  57  93 NW5       30.04R FOG


...NORTH MISSISSIPPI...

CITY           SKY/WX    TMP DP  RH WIND       PRES   REMARKS
TUPELO         CLOUDY    54  49  83 S5        30.10F
OXFORD         CLOUDY    50  50 100 SE7       30.08F FOG
OLIVE BRANCH   LGT RAIN  52  52 100 SE6       30.07F FOG
TUNICA         RAIN      55  54  94 CALM      30.08R
CLARKSDALE     CLOUDY    55  55 100 CALM      30.08R VSB 1/2
CORINTH        DRIZZLE   52  50  93 SE5       30.10S
GRENADA        RAIN      59  57  94 CALM      30.05F
GREENWOOD      LGT RAIN  64  59  83 S13       30.04F
COLUMBUS       CLOUDY    57  50  77 SE9       30.11F
STARKVILLE     CLOUDY    55  52  88 SE10      30.11R
GOLDEN TRIANGL CLOUDY    55  48  76 SE14      30.10F


...SOUTHEAST MISSOURI...

CITY           SKY/WX    TMP DP  RH WIND       PRES   REMARKS
WEST PLAINS    LGT RAIN  39  35  86 NW6       30.13F WCI  35
POPLAR BLUFF   CLOUDY    52  47  83 N9        30.08F
CAPE GIRARDEAU CLOUDY    50  49  96 W5        30.10F


...NORTHWEST ALABAMA...

CITY           SKY/WX    TMP DP  RH WIND       PRES   REMARKS
MUSCLE SHOALS  CLOUDY    52  48  86 E6        30.14S


...MIDDLE TENNESSEE...

CITY           SKY/WX    TMP DP  RH WIND       PRES   REMARKS
NASHVILLE      CLOUDY    51  47  86 S7        30.14F
CLARKSVILLE    LGT RAIN  50  49  96 S5        30.12F FOG
COLUMBIA       CLOUDY   N/A N/A N/A CALM      30.11S


...WESTERN KENTUCKY...

CITY           SKY/WX    TMP DP  RH WIND       PRES   REMARKS
PADUCAH        LGT RAIN  50  49  96 SW5       30.10S FOG
FORT CAMPBELL  LGT RAIN  50  48  95 S2        30.11F


...CENTRAL ARKANSAS...

CITY           SKY/WX    TMP DP  RH WIND       PRES   REMARKS
LITTLE ROCK    LGT RAIN  50  45  83 NW13      30.13R


SKY/WX REPORTED AS FAIR MEANS FEW OR NO CLOUDS BELOW
12 THOUSAND FEET.



USA.gov is the U.S. government's official web portal to all federal, state and local government web resources and services.